SPACEBEENZ-8 (48891 NORAD) Tracking and Keplerian Element Data

This shows tracking and keplerian element data for the satellite.

Feedback or suggestion? Click here.




ElementValue
Catalog48891
NameSPACEBEENZ-8
Epoch Orbit1387
Epoch Day268.60530644
Epoch Year2021
RAAN36.075
Inclination97.5267
Eccentricity0.0008119
Argument of Perigee304.7396
Mean Anonmoly55.3069
Mean Motion15.12419563
Decay Rate4.394E-05
L11 48891U 21059N 21268.60530644 .00004394 00000-0 25656-3 0 9991
L22 48891 97.5267 36.0750 0008119 304.7396 55.3069 15.12419563 13874

Live tracking and technical data element details for SPACEBEENZ-8 (NORAD 48891). SPACEBEENZ-8 can be tracked NOW for your location showing map with azimuth and elevation plus other details from your city location.

Track the satellite on the map from your city or location and see movement details for azimuth, elevation, latitude, longitude, range, height, and movement on the map or in text.







IsCatalogInMostPopularTable: catalog: 48891, numindb: 14
Update: records affected: 1



GetName: 48891 SPACEBEENZ-8

Hit Count: updated at: Sun, 26 Sep 2021 15:33:35 GMT